Date String (YYYY-MM-DD hh:mm:ss) UTC,Instrument flags,Ambient pressure (hPa),Sample flow (lpm),Bypass flow (lpm),Sample temperature (°C),Ambient temperature (°C),ASC tube jacket temperature (°C),LED temperature (°C),Box temperature (°C),Sample RH (%),Span deviation,Mass concentration (μg/m³),Mass concentration (μg/m³),Mass concentration (μg/m³)
DateTimeUTC,F1_M11,P_M11,Q1_M11,Q2_M11,T1_M11,T2_M11,T3_M11,T4_M11,T5_M11,U1_M11,ZSPAN_M11,X0_M11,X2_M11,X1_M11
2022-09-25 17:00:00,,0835.9,5.01,0.00,30.9,29.2,00.0,39.6,32.6,15.2,0002.1,0011.92,0006.81,0006.16
2022-09-25 17:01:00,,0835.9,4.99,0.00,30.9,29.3,00.0,39.6,32.6,15.5,0001.9,0011.98,0006.81,0006.14
2022-09-25 17:02:00,,0835.8,5.00,0.00,30.9,29.4,00.0,39.6,32.6,15.7,0001.9,0012.07,0006.84,0006.14
2022-09-25 17:03:00,,0835.8,5.00,0.00,30.9,29.5,00.0,39.6,32.7,15.8,0001.9,0011.99,0006.80,0006.14
2022-09-25 17:04:00,,0835.9,5.01,0.00,30.9,29.5,00.0,39.6,32.7,15.3,0001.9,0011.83,0006.77,0006.13
2022-09-25 17:05:00,,0835.8,5.00,0.00,30.9,29.6,00.0,39.6,32.7,15.3,0001.8,0011.91,0006.76,0006.12
2022-09-25 17:06:00,,0835.8,4.99,0.00,30.9,29.6,00.0,39.6,32.7,15.0,0001.7,0011.44,0006.76,0006.10
2022-09-25 17:07:00,,0835.8,4.99,0.00,30.9,29.7,00.0,39.6,32.8,14.7,0001.6,0011.51,0006.76,0006.08
2022-09-25 17:08:00,,0835.8,5.00,0.00,30.9,29.7,00.0,39.6,32.8,14.7,0001.4,0011.48,0006.74,0006.08
2022-09-25 17:09:00,,0835.8,5.02,0.00,31.0,29.8,00.0,39.6,32.8,14.5,0001.4,0011.39,0006.75,0006.07
2022-09-25 17:10:00,,0835.8,4.99,0.00,31.0,29.8,00.0,39.7,32.8,14.9,0001.9,0010.94,0006.72,0006.06
2022-09-25 17:11:00,,0835.8,4.98,0.00,31.0,29.8,00.0,39.7,32.9,15.8,0001.8,0011.00,0006.70,0006.05
2022-09-25 17:12:00,,0835.8,5.01,0.00,31.0,29.9,00.0,39.7,32.9,15.9,0001.6,0011.09,0006.70,0006.05
2022-09-25 17:13:00,,0835.8,5.00,0.00,31.1,29.9,00.0,39.7,32.9,15.6,0001.3,0011.20,0006.71,0006.06
2022-09-25 17:14:00,,0835.8,4.99,0.00,31.1,29.8,00.0,39.7,32.9,15.7,0001.7,0011.08,0006.69,0006.06
2022-09-25 17:15:00,,0835.8,5.01,0.00,31.1,28.8,00.0,39.7,32.9,15.8,0002.0,0011.20,0006.72,0006.06
2022-09-25 17:16:00,,0835.8,5.00,0.00,31.0,27.5,00.0,39.7,32.6,15.6,0001.7,0011.26,0006.74,0006.07
2022-09-25 17:17:00,,0835.8,5.00,0.00,31.0,27.4,00.0,39.6,32.6,15.5,0001.2,0011.23,0006.74,0006.09
2022-09-25 17:18:00,,0835.7,5.00,0.00,30.9,27.6,00.0,39.6,32.4,15.5,0000.9,0011.21,0006.76,0006.12
2022-09-25 17:19:00,,0835.8,5.01,0.00,30.8,27.9,00.0,39.5,32.4,15.5,0000.2,0011.31,0006.79,0006.11
2022-09-25 17:20:00,,0835.7,5.00,0.00,30.8,28.3,00.0,39.5,32.4,15.4,0000.0,0011.66,0006.78,0006.10
2022-09-25 17:21:00,,0835.7,4.99,0.00,30.7,28.6,00.0,39.5,32.4,15.3,0000.0,0011.73,0006.77,0006.11
2022-09-25 17:22:00,,0835.7,5.02,0.00,30.7,28.8,00.0,39.5,32.5,15.4,0000.0,0011.56,0006.78,0006.11
2022-09-25 17:23:00,,0835.7,4.99,0.00,30.7,28.9,00.0,39.5,32.5,15.4,0000.0,0011.48,0006.79,0006.11
2022-09-25 17:24:00,,0835.7,5.01,0.00,30.7,29.0,00.0,39.5,32.5,15.6,0000.0,0011.55,0006.75,0006.08
2022-09-25 17:25:00,,0835.7,4.99,0.00,30.7,29.2,00.0,39.5,32.5,15.7,0000.0,0011.93,0006.73,0006.07
2022-09-25 17:26:00,,0835.7,4.99,0.00,30.8,29.3,00.0,39.5,32.6,15.5,0000.0,0011.81,0006.68,0006.05
2022-09-25 17:27:00,,0835.7,5.01,0.00,30.8,29.4,00.0,39.5,32.6,15.6,0000.0,0011.69,0006.67,0006.04
2022-09-25 17:28:00,,0835.7,4.99,0.00,30.8,29.4,00.0,39.5,32.6,15.6,0000.0,0011.70,0006.67,0006.03
2022-09-25 17:29:00,,0835.7,5.00,0.00,30.8,29.5,00.0,39.5,32.6,15.7,0000.3,0011.73,0006.66,0006.02
2022-09-25 17:30:00,,0835.7,5.01,0.00,30.8,29.6,00.0,39.5,32.7,15.4,0000.3,0012.38,0006.63,0006.02
2022-09-25 17:31:00,,0835.7,4.99,0.00,30.8,29.6,00.0,39.5,32.7,15.6,0001.2,0012.51,0006.62,0006.03
2022-09-25 17:32:00,,0835.7,5.01,0.00,30.9,29.7,00.0,39.5,32.7,15.4,0001.4,0012.35,0006.62,0006.04
2022-09-25 17:33:00,,0835.7,4.99,0.00,30.9,29.7,00.0,39.5,32.7,15.2,0001.8,0012.31,0006.59,0006.03
2022-09-25 17:34:00,,0835.7,5.00,0.00,30.9,29.8,00.0,39.5,32.8,15.2,0001.5,0012.22,0006.55,0006.02
2022-09-25 17:35:00,,0835.7,5.01,0.00,30.9,29.6,00.0,39.6,32.8,15.4,0001.6,0012.49,0006.56,0006.01
2022-09-25 17:36:00,,0835.6,5.01,0.00,30.9,28.3,00.0,39.5,32.7,15.1,0000.2,0012.91,0006.59,0006.00
2022-09-25 17:37:00,,0835.6,5.00,0.00,30.8,27.2,00.0,39.5,32.5,14.6,0000.0,0012.93,0006.58,0005.98
2022-09-25 17:38:00,,0835.7,5.00,0.00,30.8,27.2,00.0,39.4,32.4,14.9,0000.0,0012.67,0006.54,0005.96
2022-09-25 17:39:00,,0835.7,4.99,0.00,30.7,27.5,00.0,39.4,32.3,15.0,0000.0,0012.32,0006.47,0005.93
2022-09-25 17:40:00,,0835.6,5.00,0.00,30.6,27.8,00.0,39.4,32.2,15.3,0000.0,0012.20,0006.44,0005.91
2022-09-25 17:41:00,,0835.6,5.01,0.00,30.6,28.2,00.0,39.4,32.3,15.4,0000.0,0012.01,0006.43,0005.89
2022-09-25 17:42:00,,0835.6,5.01,0.00,30.6,28.4,00.0,39.3,32.3,15.3,0000.0,0011.51,0006.43,0005.87
2022-09-25 17:43:00,,0835.5,4.99,0.00,30.6,28.6,00.0,39.3,32.3,15.5,0000.0,0011.63,0006.42,0005.84
2022-09-25 17:44:00,,0835.6,4.99,0.00,30.6,28.8,00.0,39.3,32.3,15.6,0000.0,0011.65,0006.42,0005.82
2022-09-25 17:45:00,,0835.6,5.01,0.00,30.6,28.9,00.0,39.3,32.4,15.6,0000.0,0011.61,0006.41,0005.81
2022-09-25 17:46:00,,0835.6,5.00,0.00,30.6,29.1,00.0,39.3,32.4,15.6,0000.0,0011.46,0006.37,0005.81
2022-09-25 17:47:00,,0835.6,4.99,0.00,30.6,29.2,00.0,39.3,32.4,15.5,0000.0,0011.23,0006.36,0005.80
2022-09-25 17:48:00,,0835.6,4.99,0.00,30.6,29.2,00.0,39.3,32.4,15.3,0000.0,0011.51,0006.38,0005.81
2022-09-25 17:49:00,,0835.6,5.01,0.00,30.6,29.3,00.0,39.3,32.5,15.3,0000.8,0011.50,0006.38,0005.81
2022-09-25 17:50:00,,0835.6,5.00,0.00,30.6,29.4,00.0,39.3,32.5,15.3,0001.9,0011.67,0006.42,0005.82
2022-09-25 17:51:00,,0835.6,5.00,0.00,30.7,29.4,00.0,39.3,32.5,15.4,0001.8,0011.78,0006.41,0005.82
2022-09-25 17:52:00,,0835.6,5.00,0.00,30.7,29.5,00.0,39.4,32.6,15.4,0002.2,0011.34,0006.41,0005.83
2022-09-25 17:53:00,,0835.6,4.99,0.00,30.7,29.6,00.0,39.4,32.6,15.4,0002.5,0011.09,0006.37,0005.83
2022-09-25 17:54:00,,0835.6,5.01,0.00,30.7,29.6,00.0,39.4,32.6,15.3,0003.0,0011.10,0006.35,0005.84
2022-09-25 17:55:00,,0835.6,4.99,0.00,30.8,29.2,00.0,39.4,32.6,15.4,0003.2,0011.81,0006.35,0005.84
2022-09-25 17:56:00,,0835.5,5.01,0.00,30.7,27.8,00.0,39.4,32.5,15.5,0002.4,0011.84,0006.35,0005.85
2022-09-25 17:57:00,,0835.5,5.00,0.00,30.7,27.0,00.0,39.3,32.4,15.7,0002.1,0011.63,0006.37,0005.86
2022-09-25 17:58:00,,0835.6,5.00,0.00,30.6,27.1,00.0,39.2,32.3,15.6,0001.6,0011.20,0006.40,0005.88
2022-09-25 17:59:00,,0835.6,5.01,0.00,30.5,27.4,00.0,39.2,32.1,15.7,0001.7,0010.83,0006.41,0005.89
